This is the latest recevied weather packets stored in our database for station/object N3UJJ-1. If no packets are shown the sender has not sent any weather packets the latest 10 day(s).
| Time | Temp. | Humidity | Pressure | Rain* | Wind** | Luminosity | Snow |
|---|---|---|---|---|---|---|---|
| 1777499513 | 15° C | 84% | 1007.8 hPa | 0 mm | - | - | - |
| 1777498612 | 15° C | 85% | 1008 hPa | 0 mm | - | - | - |
| 1777497712 | 14.44° C | 87% | 1008 hPa | 0 mm | - | - | - |
| 1777496812 | 14.44° C | 88% | 1007.9 hPa | 0.25 mm | - | - | - |
| 1777495912 | 13.89° C | 89% | 1008.1 hPa | 0.25 mm | - | - | - |
| 1777495012 | 13.89° C | 91% | 1008.1 hPa | 0.76 mm | - | - | - |
| 1777494112 | 13.89° C | 91% | 1008.5 hPa | 0.76 mm | - | - | - |
| 1777493212 | 13.89° C | 91% | 1008.6 hPa | 0.51 mm | - | - | - |
| 1777492311 | 14.44° C | 90% | 1009.2 hPa | 0.51 mm | - | - | - |
| 1777491411 | 14.44° C | 88% | 1009.6 hPa | 0 mm | - | - | - |
| 1777490511 | 15° C | 85% | 1009.8 hPa | 0 mm | - | - | - |
| 1777489611 | 15.56° C | 83% | 1010 hPa | 0 mm | - | - | - |
| 1777488711 | 15.56° C | 85% | 1010.4 hPa | 0 mm | - | - | - |
| 1777487811 | 15.56° C | 82% | 1010.8 hPa | 0 mm | - | - | - |
| 1777486910 | 15.56° C | 82% | 1011 hPa | 0 mm | - | - | - |
| 1777486010 | 15.56° C | 81% | 1011.5 hPa | 0 mm | - | - | - |
| 1777485110 | 16.11° C | 80% | 1011.4 hPa | 0 mm | - | - | - |
| 1777484210 | 16.11° C | 80% | 1011.7 hPa | 0 mm | - | - | - |
| 1777483310 | 16.11° C | 81% | 1011.8 hPa | 0 mm | - | - | - |
| 1777482410 | 16.11° C | 80% | 1012 hPa | 0 mm | - | - | - |
| 1777481510 | 16.67° C | 78% | 1012 hPa | 0 mm | - | - | - |
| 1777480609 | 16.67° C | 78% | 1012.3 hPa | 0 mm | - | - | - |
| 1777479709 | 16.67° C | 79% | 1012.6 hPa | 0 mm | - | - | - |
| 1777478809 | 16.11° C | 77% | 1012.7 hPa | 0 mm | - | - | - |
| 1777477909 | 16.11° C | 77% | 1012.9 hPa | 0 mm | - | - | - |
* Rain latest hour (hover to see other rain measurements)
** Current wind speed in m/s (hover to see current wind gust speed)